Jackson, MN

2:16 PM CDT on April 25, 2018 (GMT -0500)
Jackson Municipal

Weather History for KMJQ - October, 2013

Change the Weather History Date:

Thursday, October 31, 2013

  Actual Average Record
Temperature  
Mean Temperature 38 °F -  
Max Temperature 42 °F 48 °F 71 °F (1999)
Min Temperature 35 °F 31 °F 17 °F (1996)
Degree Days  
Heating Degree Days 26    
Moisture  
Dew Point 35 °F    
Average Humidity 88    
Maximum Humidity 100    
Minimum Humidity 81    
Precipitation  
Precipitation 0.01 in - - ()
Sea Level Pressure  
Sea Level Pressure 29.55 in    
Wind  
Wind Speed 10 mph (WNW)    
Max Wind Speed 15 mph    
Max Gust Speed 20 mph    
Visibility 8 miles    
Events      
Averages and records for this station are not official NWS values.
T = Trace of Precipitation, MM = Missing Value Source: NWS Daily Summary

Daily Weather History Graph

Daily Weather History Graph

Search for Another Location

Airport or City:

Astronomy

Oct. 31, 2013 Rise Set
Actual Time 7:54 AM CDT 6:11 PM CDT
Civil Twilight 7:24 AM CDT 6:41 PM CDT
Nautical Twilight 6:51 AM CDT 7:15 PM CDT
Astronomical Twilight 6:17 AM CDT 7:48 PM CDT
Moon 4:39 AM CDT (10/31) 4:34 PM CDT (10/31)
Length of Visible Light 11h 16m
Length of Day
10h 16m
Waning Crescent, 10% of the Moon is Illuminated
Oct 31
Waning Crescent
Nov 3
New
Nov 9
First Quarter
Nov 17
Full
Nov 25
Last Quarter

Hourly Weather History & Observations

Time (CDT) Temp. Windchill Dew Point Humidity Pressure Visibility Wind Dir Wind Speed Gust Speed Precip Events Conditions
12:13 AM 42.8 °F 37.0 °F 41.0 °F 93% 29.70 in 4.0 mi West 10.4 mph - N/A   Overcast
12:33 AM 42.8 °F 36.6 °F 41.0 °F 93% 29.71 in 5.0 mi West 11.5 mph - N/A   Overcast
12:53 AM 42.8 °F 37.0 °F 39.2 °F 87% 29.69 in 2.5 mi WNW 10.4 mph - N/A   Overcast
1:13 AM 41.0 °F 35.8 °F 39.2 °F 93% 29.68 in 2.5 mi West 8.1 mph - N/A   Overcast
1:33 AM 41.0 °F 34.7 °F 39.2 °F 93% 29.68 in 4.0 mi West 10.4 mph - N/A   Overcast
1:53 AM 41.0 °F 34.7 °F 37.4 °F 87% 29.68 in 5.0 mi WNW 10.4 mph - N/A   Overcast
2:14 AM 41.0 °F 33.9 °F 37.4 °F 87% 29.67 in 7.0 mi West 12.7 mph 16.1 mph N/A   Overcast
2:33 AM 39.2 °F 31.6 °F 37.4 °F 93% 29.66 in 7.0 mi West 12.7 mph 17.3 mph N/A   Overcast
2:53 AM 37.4 °F 29.8 °F 35.6 °F 93% 29.66 in 7.0 mi West 11.5 mph 16.1 mph N/A   Overcast
3:13 AM 37.4 °F 28.5 °F 35.6 °F 93% 29.64 in 5.0 mi West 15.0 mph - 0.01 in   Overcast
3:33 AM 37.4 °F 31.4 °F 35.6 °F 93% 29.63 in 7.0 mi WNW 8.1 mph - 0.01 in   Overcast
3:53 AM 35.6 °F 26.6 °F 35.6 °F 100% 29.62 in 10.0 mi WNW 13.8 mph - 0.01 in   Overcast
4:14 AM 37.4 °F 32.1 °F 35.6 °F 93% 29.64 in 10.0 mi West 6.9 mph - N/A   Overcast
4:33 AM 37.4 °F 32.8 °F 35.6 °F 93% 29.64 in 10.0 mi WNW 5.8 mph - N/A   Overcast
4:53 AM 37.4 °F 32.1 °F 35.6 °F 93% 29.63 in 10.0 mi West 6.9 mph - N/A   Mostly Cloudy
5:14 AM 37.4 °F 31.4 °F 35.6 °F 93% 29.62 in 10.0 mi West 8.1 mph - N/A   Overcast
5:33 AM 37.4 °F 32.1 °F 33.8 °F 87% 29.62 in 10.0 mi West 6.9 mph - N/A   Mostly Cloudy
5:53 AM 35.6 °F 29.9 °F 33.8 °F 93% 29.62 in 10.0 mi West 6.9 mph - N/A   Mostly Cloudy
6:13 AM 37.4 °F 30.8 °F 33.8 °F 87% 29.61 in 10.0 mi West 9.2 mph - N/A   Overcast
6:33 AM 37.4 °F 31.4 °F 33.8 °F 87% 29.61 in 10.0 mi West 8.1 mph - N/A   Overcast
6:54 AM 37.4 °F 32.8 °F 33.8 °F 87% 29.61 in 10.0 mi West 5.8 mph - N/A   Overcast
7:13 AM 37.4 °F 32.8 °F 33.8 °F 87% 29.60 in 10.0 mi West 5.8 mph - N/A   Overcast
7:34 AM 37.4 °F 30.8 °F 33.8 °F 87% 29.61 in 10.0 mi West 9.2 mph - N/A   Overcast
7:53 AM 37.4 °F 31.4 °F 33.8 °F 87% 29.60 in 10.0 mi West 8.1 mph - N/A   Overcast
8:13 AM 35.6 °F 29.2 °F 33.8 °F 93% 29.60 in 10.0 mi West 8.1 mph - N/A   Overcast
8:33 AM 35.6 °F 28.6 °F 33.8 °F 93% 29.59 in 10.0 mi West 9.2 mph - N/A   Overcast
8:53 AM 35.6 °F 28.0 °F 33.8 °F 93% 29.58 in 10.0 mi West 10.4 mph - N/A   Overcast
9:13 AM 35.6 °F 28.6 °F 33.8 °F 93% 29.59 in 10.0 mi West 9.2 mph - N/A   Overcast
9:33 AM 35.6 °F 28.6 °F 33.8 °F 93% 29.60 in 10.0 mi West 9.2 mph - N/A   Overcast
9:54 AM 35.6 °F 29.2 °F 33.8 °F 93% 29.59 in 10.0 mi West 8.1 mph - N/A   Overcast
10:13 AM 35.6 °F 29.2 °F 33.8 °F 93% 29.59 in 10.0 mi West 8.1 mph - N/A   Overcast
10:33 AM 35.6 °F 28.6 °F 33.8 °F 93% 29.58 in 7.0 mi WSW 9.2 mph - N/A   Overcast
10:53 AM 35.6 °F 28.0 °F 33.8 °F 93% 29.57 in 7.0 mi West 10.4 mph - N/A   Overcast
11:13 AM 35.6 °F 28.6 °F 33.8 °F 93% 29.56 in 5.0 mi West 9.2 mph - N/A   Overcast
11:33 AM 35.6 °F 28.6 °F 33.8 °F 93% 29.55 in 5.0 mi WNW 9.2 mph - N/A   Overcast
11:53 AM 35.6 °F 27.5 °F 33.8 °F 93% 29.55 in 4.0 mi West 11.5 mph - N/A   Overcast
12:13 PM 35.6 °F 28.0 °F 33.8 °F 93% 29.54 in 10.0 mi West 10.4 mph - N/A   Overcast
12:33 PM 35.6 °F 27.1 °F 33.8 °F 93% 29.53 in 7.0 mi West 12.7 mph - N/A   Overcast
12:53 PM 35.6 °F 28.0 °F 33.8 °F 93% 29.52 in 5.0 mi West 10.4 mph - N/A   Overcast
1:14 PM 35.6 °F 29.2 °F 33.8 °F 93% 29.51 in 7.0 mi WNW 8.1 mph - N/A   Overcast
1:33 PM 35.6 °F 27.5 °F 33.8 °F 93% 29.50 in 7.0 mi West 11.5 mph - N/A   Overcast
1:53 PM 35.6 °F 26.2 °F 33.8 °F 93% 29.49 in 10.0 mi WNW 15.0 mph - N/A   Overcast
2:14 PM 37.4 °F 29.8 °F 33.8 °F 87% 29.49 in 5.0 mi West 11.5 mph - N/A   Overcast
2:33 PM 37.4 °F 29.3 °F 33.8 °F 87% 29.48 in 7.0 mi West 12.7 mph - N/A   Overcast
2:53 PM 37.4 °F 29.8 °F 33.8 °F 87% 29.47 in 7.0 mi WNW 11.5 mph - N/A   Overcast
3:13 PM 37.4 °F 29.8 °F 33.8 °F 87% 29.47 in 10.0 mi West 11.5 mph - N/A   Overcast
3:33 PM 39.2 °F 31.6 °F 33.8 °F 81% 29.46 in 10.0 mi West 12.7 mph - N/A   Overcast
3:53 PM 39.2 °F 30.8 °F 33.8 °F 81% 29.46 in 10.0 mi WNW 15.0 mph 19.6 mph N/A   Overcast
4:13 PM 39.2 °F 31.2 °F 33.8 °F 81% 29.45 in 10.0 mi WNW 13.8 mph - N/A   Overcast
4:33 PM 39.2 °F 32.5 °F 33.8 °F 81% 29.45 in 10.0 mi WNW 10.4 mph - N/A   Overcast
4:53 PM 41.0 °F 34.7 °F 35.6 °F 81% 29.46 in 10.0 mi West 10.4 mph - N/A   Overcast
5:13 PM 41.0 °F 33.9 °F 35.6 °F 81% 29.46 in 10.0 mi WNW 12.7 mph 16.1 mph N/A   Overcast
5:33 PM 41.0 °F 34.7 °F 35.6 °F 81% 29.46 in 10.0 mi West 10.4 mph - N/A   Overcast
5:53 PM 41.0 °F 34.7 °F 35.6 °F 81% 29.46 in 10.0 mi West 10.4 mph - N/A   Overcast
6:13 PM 41.0 °F 35.8 °F 35.6 °F 81% 29.46 in 10.0 mi West 8.1 mph - N/A   Overcast
6:33 PM 41.0 °F 35.8 °F 35.6 °F 81% 29.46 in 10.0 mi West 8.1 mph - N/A   Overcast
6:53 PM 41.0 °F 35.2 °F 35.6 °F 81% 29.46 in 10.0 mi West 9.2 mph - N/A   Overcast
7:13 PM 41.0 °F 34.3 °F 35.6 °F 81% 29.46 in 10.0 mi West 11.5 mph - N/A   Overcast
7:34 PM 41.0 °F 35.2 °F 35.6 °F 81% 29.47 in 10.0 mi West 9.2 mph - N/A   Overcast
7:53 PM 41.0 °F 34.7 °F 35.6 °F 81% 29.47 in 10.0 mi West 10.4 mph - N/A   Overcast
8:13 PM 41.0 °F 33.9 °F 35.6 °F 81% 29.46 in 7.0 mi WNW 12.7 mph - N/A   Overcast
8:33 PM 41.0 °F 35.2 °F 35.6 °F 81% 29.46 in 10.0 mi WNW 9.2 mph - N/A   Overcast
8:53 PM 41.0 °F 34.7 °F 35.6 °F 81% 29.46 in 7.0 mi WNW 10.4 mph - N/A   Overcast
9:13 PM 41.0 °F 35.2 °F 35.6 °F 81% 29.46 in 5.0 mi NW 9.2 mph - N/A   Overcast
9:33 PM 41.0 °F 34.7 °F 37.4 °F 87% 29.47 in 5.0 mi NW 10.4 mph - N/A   Light Drizzle
9:53 PM 41.0 °F 34.7 °F 35.6 °F 81% 29.47 in 5.0 mi NW 10.4 mph - N/A   Light Drizzle
10:13 PM 41.0 °F 35.2 °F 35.6 °F 81% 29.47 in 7.0 mi NW 9.2 mph - N/A   Light Drizzle
10:33 PM 41.0 °F 35.8 °F 35.6 °F 81% 29.48 in 5.0 mi NW 8.1 mph - N/A   Overcast
10:53 PM 41.0 °F 35.8 °F 35.6 °F 81% 29.48 in 5.0 mi WNW 8.1 mph - N/A   Light Drizzle
11:13 PM 39.2 °F 34.2 °F 35.6 °F 87% 29.48 in 5.0 mi WNW 6.9 mph - N/A   Overcast
11:33 PM 39.2 °F 34.2 °F 35.6 °F 87% 29.48 in 7.0 mi WNW 6.9 mph - N/A   Overcast
11:53 PM 41.0 °F 35.8 °F 35.6 °F 81% 29.48 in 7.0 mi WNW 8.1 mph - N/A   Overcast